Other Public Products
Issued by NWS Grand Forks, ND

Home | Current Version | Previous Version | Graphics & Text | Print | Product List | Glossary On
Versions: 1 2 3 4 5 6 7 8 9 10 11 12 13 14 15 16 17 18 19 20 21 22 23 24 25 26 27 28 29 30 31 32 33 34 35 36 37 38 39 40 41 42 43 44 45 46 47 48 49 50
000
FPUS83 KFGF 270110
OPUFGF
PRAIRIE TO PINES WEATHER ROUNDUP
NATIONAL WEATHER SERVICE EASTERN NORTH DAKOTA/GRAND FORKS ND
700 PM CST MON JAN 26 2015

 **SATELLITE DATA USED TO AUGMENT SKY COVER AT AUTOMATED STATIONS**
 *****  WEATHER ACROSS EASTERN NORTH DAKOTA  *****

CITY           SKY/WX    TMP DP  RH WIND       PRES   REMARKS
GRAND FORKS    MOCLDY    28  25  88 CALM      29.98R
GRAND FORKS AF CLOUDY    28  25  88 NE3       29.99R
GRAND CITY NWS NOT AVBL
BUXTON         NOT AVBL
DEVILS LAKE    CLOUDY    34  28  80 NW3       29.94S
FARGO          MOCLDY    31  26  82 N7        29.99R WCI  24
WAHPETON ARPT  PTCLDY    32  28  86 N8        29.98R WCI  25
$$

 *****  WEATHER ACROSS CENTRAL AND WESTERN NORTH DAKOTA  *****

CITY           SKY/WX    TMP DP  RH WIND       PRES   REMARKS
JAMESTOWN      CLEAR     33  29  85 NW6       29.96R
BISMARCK       MOCLDY    35  31  85 E5        29.98R
MINOT          MOCLDY    37  31  78 S5        29.93F
MINOT AFB      PTCLDY    34  34  99 S1        29.93S
GARRISON         N/A     36  31  82 CALM      29.94S
WILLISTON      PTCLDY    35  29  78 S3        29.90F
DICKINSON      PTCLDY    41  32  70 S6        29.91F
HETTINGER      PTCLDY    39  32  76 CALM      29.95F
$$

 *****  OTHER OBSERVATIONS NORTHEAST NORTH DAKOTA  *****

CITY           SKY/WX    TMP DP  RH WIND       PRES   REMARKS
WALHALLA         N/A     27  27 100 E3        29.98R
LANGDON        CLOUDY    28  28 100 CALM      29.93S FOG
CAVALIER       FAIR      25  23  93 NE3       29.98S
GRAFTON        NOT AVBL
CANDO          CLOUDY    32  30  93 SW6       29.95R
FORT TOTTEN      N/A     34  31  87 CALM      29.95S
ROLLA          CLOUDY    32  32 100 W5        29.93S
RUGBY          FAIR      32  28  86 SW7       29.95R
 ***** THE ABOVE OBSERVATIONS ARE NON NWS ARE NOT QUALITY
        CONTROLLED AND MAY MIS-REPORT RAIN FOR SNOW...
$$

 *****  OTHER OBSERVATIONS SOUTHEAST NORTH DAKOTA *****

CITY           SKY/WX    TMP DP  RH WIND       PRES   REMARKS
COOPERSTOWN    NOT AVBL
VALLEY CITY    FAIR      30  30 100 NW7       29.97R WCI  23
OAKES            N/A     32  32 100 NW6       29.98R
GWINNER        MOCLDY    36  34  93 NW8       29.98S
SHEYENNE NWR     N/A     34  30  84 NE7       29.95S
BUFFALO        NOT AVBL
WYNDMERE         N/A     34  32  93 N3          N/A
 ***** THE ABOVE OBSERVATIONS ARE NON NWS ARE NOT QUALITY
       CONTROLLED AND MAY MIS-REPORT RAIN FOR SNOW...
$$

  *****  WEATHER ACROSS NORTHERN MINNESOTA  *****

CITY           SKY/WX    TMP DP  RH WIND       PRES   REMARKS
FLAG ISLAND    CLOUDY    25  21  86 NW9       29.94R WCI  15
WARROAD        CLOUDY    25  21  86 N6        29.94S WCI  18
ROSEAU         CLOUDY    27  21  80 N6        29.95R WCI  20
HALLOCK        CLOUDY    27  25  93 N8        29.97R WCI  18
THF RVR FALLS  CLOUDY    28  25  86 N8        29.96R WCI  20
HALSTAD          N/A     29  25  85 N10         N/A  WCI  19
FOSSTON        CLOUDY    27  25  93 NW8       29.94R WCI  18
BAUDETTE       CLOUDY    26  21  81 NW8       29.92R WCI  18
WASKISH        CLOUDY    28  25  86 NW6       29.93R WCI  22
CROOKSTON      CLOUDY    28  25  86 N8        30.00R WCI  20
$$
  *****  WEATHER ACROSS CENTRAL AND WEST MINNESOTA  *****

CITY           SKY/WX    TMP DP  RH WIND       PRES   REMARKS
BEMIDJI        CLOUDY    30  25  83 N7        29.91R WCI  23
PARK RAPIDS    CLOUDY    31  26  82 N12       29.90R WCI  22
WADENA         CLOUDY    30  27  86 NW8       29.92R WCI  23
DETROIT LAKES  CLOUDY    30  28  93 N12       29.94S WCI  21
MOORHEAD       PTCLDY    30  30 100 N15       30.00R WCI  19
FERGUS FALLS   MOCLDY    28  25  86 N12G18    29.98R WCI  18
ELBOW LAKE     MOCLDY    31  28  90 N12       29.94R WCI  22
MORRIS MN      CLEAR     34  30  86 N10       29.94R
STAPLES        CLOUDY    32  28  86 NW9       29.91R WCI  24
WHEATON        CLEAR     30  28  93 NW7       29.99R WCI  23
$$
  *****  WEATHER ELSEWHERE ACROSS MINNESOTA  *****

CITY           SKY/WX    TMP DP  RH WIND       PRES   REMARKS
DULUTH         CLOUDY    30  25  81 N12G20    29.84R WCI  20
INTRNTL FALLS  CLOUDY    27  22  81 NW8       29.90R WCI  19
ELY            CLOUDY    25  21  86 N6        29.86R WCI  18
CLOQUET        CLOUDY    30  27  86 N12G17    29.85R WCI  21
BRAINERD       CLOUDY    34  27  75 N15       29.90R WCI  24
HIBBING        CLOUDY    29  22  75 N12       29.87R WCI  19
ALEXANDRIA     CLOUDY    31  26  82 N14       29.92R WCI  21
SAINT CLOUD    CLOUDY    36  29  75 NW12      29.89R
MINNEAPOLIS    CLOUDY    39  29  67 NW12      29.87R
$$

  *****  WEATHER ACROSS SOUTH DAKOTA  *****

CITY           SKY/WX    TMP DP  RH WIND       PRES   REMARKS
SIOUX FALLS    PTCLDY    38  32  79 W9        29.97R
BROOKINGS      NOT AVBL
WATERTOWN      CLEAR     35  31  85 NW6       29.96R
HURON          CLEAR     34  31  88 NW7       30.00R
SISSETON         N/A     33  32  96 N7        29.96R
ABERDEEN       CLEAR     36  31  82 W8        29.99R
MITCHELL       CLEAR     40  34  79 W6        30.01R
PIERRE         PTCLDY    37  28  70 N3        29.97F
MOBRIDGE       MOCLDY    39  31  72 E6        29.96S
RAPID CITY     CLEAR     51  29  42 SW3       30.00S
$$

  *****  SOME WEATHER IN NEARBY STATES *****

CITY           SKY/WX    TMP DP  RH WIND       PRES   REMARKS
GLASGOW MT     CLEAR     46  36  68 CALM      29.87F
GREAT FALLS MT CLEAR     54  31  41 SW22      29.90F
CHEYENNE WY    CLEAR     53  21  28 NW9       30.22S
SCOTTSBLUFF NE CLEAR     50  33  52 W9        30.11S
OMAHA NE       PTCLDY    48  34  58 NW12      29.99R
DES MOINES IA  MOCLDY    46  36  68 N14       29.92R
DAVENPORT IA   CLOUDY    32  29  88 NE3       29.86R
CHICAGO IL     FRZ DRZL  25  23  92 S8        29.89S FOG     WCI  16
EAU CLAIRE WI  CLOUDY    27  24  89 NE3       29.84R
LA CROSSE WI   CLOUDY    30  26  85 S3        29.85R
$$

  *****  SOME NATIONAL WEATHER *****

CITY           SKY/WX    TMP DP  RH WIND       PRES   REMARKS
LA GUARDIA NY  LGT SNOW  26  23  88 NE20G31   29.81F FOG     WCI  12
RALEIGH NC     LGT RAIN  44  38  79 VRB3      29.67R
ATLANTA GA     MOCLDY    36  27  69 NW12      29.93R
NEW ORLEANS LA PTCLDY    53  36  52 NW6       30.10R
OKLAHOMA CITY  PTCLDY    58  33  39 CALM      30.06R
ALBUQUERQUE NM PTCLDY    53  26  35 NE5       30.32S
SALT LAKE CITY PTCLDY    40  32  73 W8        30.22R
LOS ANGELES CA RAIN      60  52  74 SE6       30.07R
BOISE ID       MOCLDY    41  34  76 NE3       30.17F
SEATTLE WA     PTCLDY    57  46  66 SW7       29.92S
$$

*** WEATHER ACROSS MANITOBA...SASKATCHEWAN AND ONTARIO ***
                ***ONTARIO***

CITY           SKY/WX    TMP DP  RH WIND       PRES   REMARKS
GERALDTON      FLURRIES  19  16  86 SE3       29.92R
THUNDER BAY    MOCLDY    21  21 100 CALM      29.91R
SIOUX LOOKOUT  CLOUDY    21  19  93 CALM      29.87R
TORONTO        MOCLDY    14   0  52 NE12      30.01S WCI   0
BIG TROUT LK   CLEAR      1   0  92 S3        29.88R
PICKLE LAKE    FLURRIES  18  12  79 S3        29.85R
DRYDEN         CLOUDY    23  21  93 NW3       29.87R
KENORA         FLURRIES  19  18  93 N5        29.92R WCI  13
$$
                *** MANITOBA***

CITY           SKY/WX    TMP DP  RH WIND       PRES   REMARKS
BRANDON        MOCLDY    28  27  93 NW2       29.92S
DAUPHIN        PTCLDY    23  21  93 S5        29.90R WCI  17
ISLAND LAKE    FLURRIES  14  10  85 SW7       29.86S WCI   4
PILOT MOUND    NOT AVBL
THE PAS        PTCLDY    21  18  86 SE7       29.80F WCI  13
THOMPSON       FLURRIES  12   9  85 SW7       29.77F WCI   2
WINNIPEG       MOCLDY    21  19  93 W5        29.98R WCI  15
LYNN LAKE      CLOUDY    21  19  93 SW7       29.66F WCI  13
CHURCHILL      FLURRIES  -4  -8  84 S12       29.73F WCI -22
GILLAM         FLURRIES   7   3  85 S7        29.80S WCI  -5
$$
                ***SASKATCHEWAN***

CITY           SKY/WX    TMP DP  RH WIND       PRES   REMARKS
ESTEVAN        NOT AVBL
KINDERSLEY     PTCLDY    30  28  93 S6        29.82R WCI  24
LLOYDMINSTER   MOCLDY    34  30  86 SW9       29.79F
PRINCE ALBERT  PTCLDY    36  28  75 SW8       29.78F
REGINA         PTCLDY    30  30 100 SE8       29.87F WCI  23



USA.gov is the U.S. government's official web portal to all federal, state and local government web resources and services.